HAZ4813 ZYTX-ZBYN

Flight info

Callsign HAZ4813
Flight time N/A
Altitude 32100
Route OMDUS A575 CHG G332 MUDAM G212 VYK B215 EKETA DCT TYN
Aircraft B738/M-SDE2E3FGHIRWXY/LB1

Departure

Time 2026-05-05 22:57
Airport Shenyang Taoxian International Airport (ZYTX)

Arrival

Time N/A
Airport Taiyuan Wusu International Airport (ZBYN)
Time Latitude Longitude Altitude Speed Heading
2026-05-05 22:54 41.64853 123.49885 206 ft 0 kts 320°
2026-05-05 22:55 41.64854 123.49885 206 ft 0 kts 320°
2026-05-05 22:55 41.64854 123.49884 206 ft 0 kts 320°
2026-05-05 22:55 41.64879 123.49856 206 ft 8 kts 319°
2026-05-05 22:55 41.64924 123.49799 206 ft 7 kts 308°
2026-05-05 22:56 41.64923 123.49734 206 ft 7 kts 233°
2026-05-05 22:56 41.64886 123.49678 206 ft 12 kts 229°
2026-05-05 22:56 41.64737 123.49453 206 ft 65 kts 228°
2026-05-05 22:56 41.64287 123.48770 206 ft 127 kts 229°
2026-05-05 22:57 41.63586 123.47714 217 ft 174 kts 227°
2026-05-05 22:57 41.62808 123.46501 848 ft 171 kts 227°
2026-05-05 22:57 41.62044 123.45386 1622 ft 167 kts 225°
2026-05-05 22:57 41.61241 123.44247 2156 ft 172 kts 226°
2026-05-05 22:58 41.60424 123.43026 2592 ft 182 kts 228°
2026-05-05 22:58 41.59567 123.41721 3042 ft 190 kts 229°
2026-05-05 22:58 41.58675 123.40365 3464 ft 200 kts 229°
2026-05-05 22:58 41.57735 123.38934 3831 ft 211 kts 231°
2026-05-05 22:59 41.56985 123.37218 4310 ft 218 kts 249°
2026-05-05 22:59 41.56794 123.35227 4925 ft 221 kts 270°
2026-05-05 22:59 41.57030 123.33221 5560 ft 221 kts 275°
2026-05-05 22:59 41.57319 123.31200 6155 ft 222 kts 274°
2026-05-05 23:00 41.57497 123.29857 6545 ft 222 kts 274°